Weather History for Fremont, NE

Change the Weather History Date:

Monday, February 3, 2014

  Actual Average Record
Temperature  
Mean Temperature 20 °F -  
Max Temperature 34 °F 33 °F 61 °F (1962)
Min Temperature 7 °F 13 °F -15 °F (1989)
Degree Days  
Heating Degree Days 44    
Moisture  
Dew Point 12 °F    
Average Humidity 68    
Maximum Humidity 89    
Minimum Humidity 46    
Precipitation  
Precipitation 0.00 in - - ()
Sea Level Pressure  
Sea Level Pressure 30.20 in    
Wind  
Wind Speed 6 mph (SSE)    
Max Wind Speed 12 mph    
Max Gust Speed -    
Visibility 10 miles    
Events      
Averages and records for this station are not official NWS values.
T = Trace of Precipitation, MM = Missing Value Source: NWS Daily Summary

Daily Weather History Graph

Daily Weather History Graph

Search for Another Location

Airport:

Trip Planner

Search our weather history database for the weather conditions in past years. The results will help you decide how hot, cold, wet, or windy it might be!

Date:

Astronomy

Feb. 03, 2014 Rise Set
Actual Time 7:35 AM CST 5:44 PM CST
Civil Twilight 7:06 AM CST 6:13 PM CST
Nautical Twilight 6:33 AM CST 6:47 PM CST
Astronomical Twilight 6:00 AM CST 7:19 PM CST
Moon 9:34 AM CST (2/3) 10:40 PM CST (2/3)
Length of Visible Light 11h 07m
Length of Day
10h 09m
Waxing Crescent, 20% of the Moon is Illuminated
Feb 3
Waxing Crescent
Feb 6
First Quarter
Feb 14
Full
Feb 22
Last Quarter
Mar 1
New

Hourly Weather History & Observations

Time (CST) Temp. Windchill Dew Point Humidity Pressure Visibility Wind Dir Wind Speed Gust Speed Precip Events Conditions
12:15 AM 15.1 °F 7.7 °F 9.3 °F 78% 30.21 in 10.0 mi South 4.6 mph - N/A   Clear
12:35 AM 15.3 °F 6.6 °F 9.3 °F 77% 30.21 in 10.0 mi South 5.8 mph - N/A   Clear
12:55 AM 14.5 °F 3.6 °F 8.8 °F 78% 30.21 in 10.0 mi SSW 8.1 mph - N/A   Clear
1:15 AM 14.4 °F 5.5 °F 8.6 °F 78% 30.21 in 10.0 mi South 5.8 mph - N/A   Clear
1:35 AM 13.1 °F 4.0 °F 8.2 °F 81% 30.21 in 10.0 mi SW 5.8 mph - N/A   Clear
1:55 AM 13.5 °F - 8.1 °F 79% 30.21 in 10.0 mi Calm Calm - N/A   Clear
2:15 AM 12.7 °F - 7.7 °F 80% 30.21 in 10.0 mi Calm Calm - N/A   Clear
2:35 AM 12.0 °F 5.9 °F 7.3 °F 81% 30.21 in 10.0 mi South 3.5 mph - N/A   Clear
2:55 AM 10.8 °F 1.2 °F 6.6 °F 83% 30.21 in 10.0 mi South 5.8 mph - N/A   Clear
3:15 AM 10.9 °F 2.9 °F 6.8 °F 83% 30.21 in 10.0 mi SSE 4.6 mph - N/A   Clear
3:35 AM 11.3 °F - 6.6 °F 81% 30.20 in 10.0 mi Calm Calm - N/A   Clear
3:55 AM 9.7 °F 1.4 °F 6.1 °F 85% 30.19 in 10.0 mi SSE 4.6 mph - N/A   Clear
4:15 AM 8.6 °F -1.3 °F 5.0 °F 85% 30.19 in 10.0 mi SSE 5.8 mph - N/A   Clear
4:35 AM 8.4 °F -2.8 °F 5.4 °F 87% 30.19 in 10.0 mi SSE 6.9 mph - N/A   Clear
4:55 AM 7.7 °F -0.9 °F 5.0 °F 89% 30.18 in 10.0 mi SSE 4.6 mph - N/A   Clear
5:15 AM 8.2 °F -0.3 °F 5.2 °F 87% 30.19 in 10.0 mi SSE 4.6 mph - N/A   Clear
5:35 AM 10.2 °F 2.0 °F 6.8 °F 86% 30.19 in 10.0 mi South 4.6 mph - N/A   Clear
5:55 AM 11.8 °F 1.3 °F 7.7 °F 83% 30.20 in 10.0 mi South 6.9 mph - N/A   Clear
6:15 AM 10.6 °F 4.3 °F 6.8 °F 85% 30.20 in 10.0 mi South 3.5 mph - N/A   Clear
6:35 AM 10.2 °F 0.6 °F 6.4 °F 85% 30.19 in 10.0 mi SSE 5.8 mph - N/A   Clear
6:55 AM 10.8 °F 1.2 °F 6.8 °F 84% 30.19 in 10.0 mi South 5.8 mph - N/A   Clear
7:15 AM 10.4 °F 4.0 °F 6.6 °F 85% 30.20 in 10.0 mi South 3.5 mph - N/A   Clear
7:35 AM 10.9 °F 2.9 °F 6.8 °F 83% 30.21 in 10.0 mi South 4.6 mph - N/A   Clear
7:55 AM 10.6 °F 2.5 °F 6.8 °F 85% 30.21 in 10.0 mi South 4.6 mph - N/A   Clear
8:15 AM 12.0 °F 1.5 °F 7.9 °F 83% 30.22 in 10.0 mi South 6.9 mph - N/A   Clear
8:35 AM 13.1 °F 2.8 °F 8.6 °F 82% 30.23 in 10.0 mi South 6.9 mph - N/A   Clear
8:55 AM 14.9 °F 7.5 °F 10.0 °F 81% 30.22 in 10.0 mi SSW 4.6 mph - N/A   Clear
9:15 AM 15.8 °F 7.2 °F 10.2 °F 79% 30.22 in 10.0 mi South 5.8 mph - N/A   Clear
9:35 AM 17.6 °F 10.7 °F 11.5 °F 77% 30.22 in 10.0 mi South 4.6 mph - N/A   Clear
9:55 AM 18.7 °F 13.5 °F 12.0 °F 75% 30.22 in 10.0 mi SSW 3.5 mph - N/A   Clear
10:15 AM 20.3 °F 12.5 °F 12.9 °F 73% 30.22 in 10.0 mi SSW 5.8 mph - N/A   Clear
10:35 AM 20.7 °F 13.0 °F 13.1 °F 73% 30.22 in 10.0 mi SSW 5.8 mph - N/A   Clear
10:55 AM 23.4 °F 17.4 °F 13.8 °F 67% 30.23 in 10.0 mi SW 4.6 mph - N/A   Scattered Clouds
11:15 AM 24.3 °F 17.3 °F 14.5 °F 67% 30.23 in 10.0 mi SSW 5.8 mph - N/A   Mostly Cloudy
11:35 AM 26.6 °F 21.2 °F 15.4 °F 63% 30.23 in 10.0 mi SSW 4.6 mph - N/A   Scattered Clouds
11:55 AM 28.4 °F 20.4 °F 16.2 °F 60% 30.21 in 10.0 mi South 8.1 mph - N/A   Scattered Clouds
12:15 PM 30.0 °F 22.4 °F 16.7 °F 58% 30.21 in 10.0 mi SSW 8.1 mph - N/A   Mostly Cloudy
12:35 PM 30.9 °F 26.2 °F 16.9 °F 56% 30.20 in 10.0 mi SSE 4.6 mph - N/A   Scattered Clouds
12:55 PM 32.0 °F 28.7 °F 17.8 °F 56% 30.20 in 10.0 mi SSE 3.5 mph - N/A   Clear
1:15 PM 33.8 °F 26.4 °F 15.3 °F 47% 30.18 in 10.0 mi SSW 9.2 mph - N/A   Clear
1:35 PM 33.8 °F 27.0 °F 15.1 °F 46% 30.17 in 10.0 mi South 8.1 mph - N/A   Clear
1:55 PM 33.8 °F 27.7 °F 14.9 °F 46% 30.17 in 10.0 mi South 6.9 mph - N/A   Clear
2:15 PM 34.0 °F 26.0 °F 14.9 °F 46% 30.17 in 10.0 mi SSW 10.4 mph - N/A   Scattered Clouds
2:35 PM 33.3 °F 25.1 °F 15.8 °F 49% 30.17 in 10.0 mi South 10.4 mph - N/A   Scattered Clouds
2:55 PM 33.1 °F 26.1 °F 15.8 °F 49% 30.16 in 10.0 mi South 8.1 mph - N/A   Clear
3:15 PM 32.9 °F 25.9 °F 15.4 °F 49% 30.17 in 10.0 mi South 8.1 mph - N/A   Clear
3:35 PM 32.4 °F 26.0 °F 14.9 °F 49% 30.17 in 10.0 mi SSE 6.9 mph - N/A   Clear
3:55 PM 32.2 °F 24.4 °F 14.7 °F 49% 30.17 in 10.0 mi ENE 9.2 mph - N/A   Scattered Clouds
4:15 PM 32.0 °F 24.8 °F 14.9 °F 49% 30.17 in 10.0 mi SSE 8.1 mph - N/A   Mostly Cloudy
4:35 PM 31.6 °F 25.1 °F 15.3 °F 51% 30.17 in 10.0 mi SSE 6.9 mph - N/A   Scattered Clouds
4:55 PM 31.1 °F 24.5 °F 14.9 °F 51% 30.16 in 10.0 mi SSE 6.9 mph - N/A   Scattered Clouds
5:15 PM 31.1 °F 25.4 °F 15.4 °F 52% 30.16 in 10.0 mi SE 5.8 mph - N/A   Overcast
5:35 PM 30.7 °F 26.0 °F 14.9 °F 52% 30.16 in 10.0 mi SE 4.6 mph - N/A   Overcast
5:55 PM 30.4 °F 25.6 °F 14.7 °F 52% 30.16 in 10.0 mi ESE 4.6 mph - N/A   Scattered Clouds
6:15 PM 30.6 °F 25.8 °F 14.7 °F 52% 30.16 in 10.0 mi East 4.6 mph - N/A   Clear
6:35 PM 30.7 °F 26.0 °F 14.4 °F 51% 30.16 in 10.0 mi East 4.6 mph - N/A   Scattered Clouds
6:55 PM 30.4 °F 22.9 °F 14.5 °F 52% 30.17 in 10.0 mi East 8.1 mph - N/A   Clear
7:15 PM 29.5 °F 22.5 °F 16.7 °F 59% 30.17 in 10.0 mi East 6.9 mph - N/A   Clear
7:35 PM 28.9 °F 21.9 °F 17.6 °F 63% 30.18 in 10.0 mi East 6.9 mph - N/A   Clear
7:55 PM 28.9 °F 20.4 °F 17.2 °F 62% 30.18 in 10.0 mi ESE 9.2 mph - N/A   Mostly Cloudy
8:15 PM 28.4 °F 19.7 °F 17.1 °F 63% 30.19 in 10.0 mi ESE 9.2 mph - N/A   Overcast
8:35 PM 28.0 °F 18.6 °F 16.2 °F 61% 30.19 in 10.0 mi ESE 10.4 mph - N/A   Overcast
8:55 PM 27.5 °F 18.6 °F 16.2 °F 62% 30.20 in 10.0 mi ESE 9.2 mph - N/A   Overcast
9:15 PM 27.1 °F 17.5 °F 16.2 °F 63% 30.21 in 10.0 mi ESE 10.4 mph - N/A   Overcast
9:35 PM 26.6 °F 18.2 °F 15.8 °F 64% 30.21 in 10.0 mi SE 8.1 mph - N/A   Overcast
9:55 PM 26.2 °F 15.8 °F 14.9 °F 62% 30.22 in 10.0 mi SE 11.5 mph - N/A   Overcast
10:15 PM 25.7 °F 17.1 °F 15.1 °F 64% 30.23 in 10.0 mi SE 8.1 mph - N/A   Overcast
10:35 PM 25.3 °F 16.0 °F 14.9 °F 65% 30.23 in 10.0 mi SE 9.2 mph - N/A   Overcast
10:55 PM 25.0 °F 15.5 °F 14.9 °F 66% 30.23 in 10.0 mi SE 9.2 mph - N/A   Overcast
11:15 PM 24.8 °F 16.1 °F 14.9 °F 66% 30.23 in 10.0 mi SE 8.1 mph - N/A   Overcast
11:35 PM 24.8 °F 16.9 °F 14.9 °F 66% 30.23 in 10.0 mi SE 6.9 mph - N/A   Overcast
11:55 PM 24.8 °F 16.9 °F 14.9 °F 66% 30.23 in 10.0 mi SE 6.9 mph - N/A   Mostly Cloudy